Flag Weather past 2 weeks in Périgueux, France

Now
55 °F

Fog.


Feels Like: 55 °F
Forecast: 48 / 60 °F
Wind: No wind

Location: Bergerac Airport

Current Time: Nov 26, 2014 at 3:01:08 AM

Latest Report: Nov 26, 2014 at 2:30 AM


Visibility: 3 mi

Pressure: 29.98 "Hg

Humidity: 94%

Dew point: 54 °F

Location of PérigueuxLocation

Historic Weather in Périgueux — Graph

°F

Périgueux temperature yesterday

Maximum temperature yesterday: 59 °F (at 11:00 AM)
Minimum temperature yesterday: 52 °F (at 1:30 AM)
Average temperature yesterday: 56 °F

Past Weeks' High & Low Weather Summary

 TemperatureHumidityPressure
High68 °F (Nov 21, 2:00 PM)100% (Nov 11, 2:00 AM)30.09 "Hg (Nov 11, 2:00 AM)
Low34 °F (Nov 11, 3:00 AM)56% (Nov 13, 1:30 PM)29.47 "Hg (Nov 11, 2:00 PM)
Average53 °F89%29.84 "Hg
* Reported Nov 11 2:00 AM — Nov 26 2:00 AM, Périgueux, Weather by CustomWeather, © 2014

Note: Actual official high and low records may vary slightly from our data, if they occured in-between our weather recording intervals... More about our weather records

Advertising

Périgueux weather history for previous 24 hours

 ConditionsComfort  
Time TempWeatherWind HumidityBarometerVisibility
2:00 AM
Nov 26
55 °FFog.No wind94%29.98 "Hg2 mi
1:30 AM55 °FFog.2 mph94%29.98 "Hg3 mi
1:00 AM55 °FFog.2 mph94%29.98 "Hg2 mi
12:30 AM55 °FFog.2 mph94%29.98 "Hg2 mi
12:00 AM55 °FFog.No wind100%30.01 "Hg2 mi
11:30 PM
Nov 25
55 °FMostly cloudy.No wind100%30.01 "Hg5 mi
11:00 PM55 °FFog.No wind94%30.01 "Hg1 mi
10:30 PM55 °FOvercast.1 mph100%30.01 "Hg4 mi
10:00 PM55 °FOvercast.2 mph100%30.01 "HgN/A
9:30 PM55 °FPassing clouds.2 mph94%30.01 "Hg5 mi
9:00 PM55 °FFog.2 mph94%30.01 "Hg3 mi
8:30 PM55 °FMostly cloudy.2 mph100%30.01 "HgN/A
8:00 PM55 °FMostly cloudy.3 mph94%30.01 "Hg6 mi
7:30 PM55 °FPassing clouds.2 mph94%29.98 "Hg1 mi
7:00 PM55 °FPassing clouds.1 mph100%30.01 "HgN/A
6:30 PM55 °FPassing clouds.2 mph100%30.01 "Hg6 mi
6:00 PM55 °FMostly cloudy.1 mph100%30.01 "HgN/A
5:30 PM57 °FLight rain. Mostly cloudy.2 mph94%30.01 "HgN/A
5:00 PM57 °FMore clouds than sun.3 mph94%30.01 "HgN/A
4:30 PM57 °FLight rain. Broken clouds.2 mph94%30.01 "Hg5 mi
4:00 PM57 °FRain. Fog.5 mph94%30.01 "Hg3 mi
3:30 PM57 °FLight rain. Broken clouds.9 mph94%30.01 "HgN/A
3:00 PM59 °FLight rain. Fog.2 mph94%29.98 "Hg1 mi
2:30 PM59 °FLight rain. Fog.No wind94%30.01 "Hg1 mi
2:00 PM59 °FLight rain. Fog.No wind94%30.01 "Hg1 mi
1:30 PM59 °FFog.No wind100%30.01 "Hg1 mi
1:00 PM59 °FFog.1 mph94%30.04 "Hg1 mi
12:30 PM59 °FDrizzle. Fog.No wind94%30.04 "Hg1 mi
12:00 PM59 °FFog.2 mph94%30.04 "Hg3 mi
11:30 AM59 °FFog.3 mph94%30.04 "Hg2 mi
11:00 AM59 °FFog.No wind100%30.04 "Hg3 mi
10:30 AM57 °FFog.2 mph100%30.04 "Hg2 mi
10:00 AM57 °FFog.1 mph100%30.04 "Hg3 mi
9:30 AM57 °FFog.No wind100%30.04 "Hg2 mi
9:00 AM55 °FFog.1 mph100%30.04 "Hg2 mi
8:30 AM55 °FFog.No wind100%30.04 "Hg2 mi
8:00 AM55 °FFog.No wind94%30.04 "Hg1 mi
7:30 AM55 °FFog.No wind94%30.04 "Hg1 mi
7:00 AM54 °FFog.No wind100%30.04 "Hg1 mi
6:30 AM55 °FFog.No wind94%30.04 "Hg1 mi
6:00 AM55 °FFog.No wind100%30.04 "Hg1 mi
5:30 AM55 °FFog.No wind100%30.04 "Hg1 mi
5:00 AM55 °FFog.No wind100%30.04 "Hg2 mi
4:30 AM55 °FFog.No wind100%30.04 "Hg2 mi
4:00 AM55 °FFog.No wind100%30.04 "Hg2 mi
3:30 AM54 °FFog.No wind100%30.07 "Hg2 mi
3:00 AM54 °FFog.No wind100%30.07 "Hg1 mi
Weather by CustomWeather, © 2014

See weather overviewHow to use our weather pages